[[{"header":{"parameterUnit":"m.s-1","parameterCategory":1,"la1":30.2991,"la2":30.254,"lo1":-89.0895,"lo2":-89.0444,"dy":0.0017,"dx":0.0017,"nx":28,"ny":28,"refTime":"2025-12-31T09:00:00:Z","depth":0,"parameterNumber":2,"parameterNumberName":"U-component_of_WINDS"},"data":[0,0,0,0,0,0,0,0,0,0,0,0,0,0,0,0,0,0,0,0,0,0,0,0,0,0,0,0,0,0,0,0,0,0,0,0,0,0,0,0,0,0,0,0,0,0,0,0,0,0,0,0,0,0,0,0,0,0,1.67,1.67,0,1.6692,1.6692,1.6692,1.6681,1.6681,1.668,1.668,1.667,1.667,1.667,0,0,0,0,0,0,0,0,0,0,0,0,0,1.6705,1.6705,1.67,1.67,1.67,1.6692,1.6692,1.6692,1.6681,1.6681,1.668,1.668,1.6671,1.667,1.667,0,0,0,0,0,0,0,0,0,0,0,0,0,1.67,1.6705,1.67,1.6693,1.6693,1.6692,1.6692,1.6692,1.6681,1.6681,1.668,1.668,1.6671,1.667,1.667,1.6675,0,0,1.667,1.667,0,0,0,0,0,0,0,0,1.67,1.67,1.6694,1.6694,1.6693,1.6687,1.669,1.6686,1.6681,1.6685,1.668,1.668,1.6676,1.6676,1.6675,1.6674,1.6674,1.667,1.667,1.667,1.667,0,0,0,0,0,0,0,1.6701,1.67,1.6697,1.6694,1.6693,1.669,1.669,1.6689,1.6682,1.6685,1.6684,1.6683,1.6676,1.6675,1.6674,1.6674,1.667,1.667,1.667,1.667,1.6678,1.6678,0,0,0,0,0,0,1.6702,1.6701,1.6697,1.6696,1.6696,1.6691,1.669,1.6689,1.6682,1.6681,1.6684,1.6683,1.6675,1.6674,1.6674,1.6679,1.667,1.667,1.6669,1.6677,1.6678,1.6678,0,0,0,0,0,0,1.6702,1.6702,1.6697,1.6698,1.6697,1.6691,1.6691,1.6689,1.6688,1.6681,1.668,1.6684,1.6675,1.6674,1.6675,1.6678,1.667,1.6669,1.6677,1.6677,1.6678,1.6689,0,0,0,0,0,0,1.6703,1.6702,1.6704,1.6698,1.6697,1.6699,1.6691,1.6689,1.6688,1.6687,1.6681,1.668,1.6675,1.6675,1.6675,1.6678,1.6669,1.6676,1.6677,1.6678,1.6688,1.6689,1.6691,0,0,0,0,0,1.6703,1.6707,1.6704,1.6704,1.67,1.6699,1.6698,1.6692,1.6689,1.669,1.6686,1.668,1.6678,1.6675,1.6675,1.6678,1.6676,1.6677,1.6678,1.6687,1.6689,1.6691,0,0,0,0,0,0,1.6712,1.6706,1.6703,1.6705,1.6703,1.6697,1.6699,1.6694,1.6692,1.6691,1.6684,1.6683,1.6685,1.6681,1.6678,1.6682,1.6676,1.6677,1.6684,1.6686,1.6687,1.6687,1.6669,0,0,0,0,0,1.6714,1.6715,1.6709,1.6712,1.6711,1.6705,1.6705,1.6701,1.6697,1.6696,1.6692,1.6689,1.6687,1.6686,1.6685,1.6688,1.6686,1.669,1.6691,1.6692,1.6693,1.6694,1.6696,1.668,1.668,1.668,0,0,1.6719,1.6716,1.6716,1.6714,1.6711,1.6711,1.6704,1.6705,1.6704,1.6696,1.6696,1.6693,1.6689,1.6691,1.6692,1.6689,1.6697,1.6693,1.6694,1.6694,1.6695,1.6696,1.6698,1.668,1.668,1.668,0,0,1.6728,1.6725,1.6727,1.6726,1.6722,1.6719,1.6719,1.6715,1.6712,1.6713,1.6707,1.6707,1.6705,1.6702,1.67,1.671,1.6704,1.6709,1.6716,1.6718,1.6719,1.672,1.6723,1.6724,1.671,1.671,1.671,0,1.6733,1.6734,1.6729,1.673,1.6729,1.6722,1.6724,1.6722,1.6719,1.6718,1.6715,1.6713,1.671,1.6711,1.6713,1.6713,1.6713,1.6709,1.6719,1.672,1.6721,1.6724,1.6725,1.6711,1.671,1.671,1.671,0,1.6741,1.6742,1.6744,1.6741,1.6741,1.6742,1.6737,1.6737,1.6734,1.673,1.6731,1.6728,1.6725,1.6726,1.6722,1.6727,1.6725,1.6721,1.6714,1.6723,1.6726,1.6727,1.6711,1.6711,1.6711,1.6711,0,0,1.6754,1.675,1.675,1.6749,1.6746,1.6746,1.6747,1.6746,1.6746,1.6744,1.6745,1.6744,1.674,1.6738,1.6734,1.6736,1.6743,1.6731,1.6731,1.6733,1.6748,1.6751,1.6752,1.674,1.674,1.6741,1.6748,0,1.6761,1.6763,1.676,1.6763,1.6763,1.6757,1.6759,1.6757,1.6754,1.6754,1.6751,1.675,1.6745,1.6744,1.6746,1.6742,1.6746,1.6742,1.674,1.674,1.674,1.6753,1.6756,1.6763,1.6749,1.6749,1.675,0,1.677,1.6769,1.6772,1.6769,1.6769,1.677,1.6769,1.6769,1.6767,1.6765,1.6764,1.6759,1.676,1.6755,1.6757,1.6754,1.6753,1.6752,1.6752,1.675,1.6745,1.6752,1.6766,1.6766,1.6751,1.6751,1.6751,0,1.6778,1.6778,1.678,1.6779,1.6776,1.6777,1.6775,1.6773,1.6773,1.6772,1.6771,1.677,1.6769,1.6768,1.6764,1.6761,1.6766,1.676,1.6764,1.6764,1.6764,1.6764,1.6777,1.6765,1.6765,1.6765,1.6765,0,1.6786,1.6788,1.6784,1.6785,1.6787,1.6783,1.6785,1.6783,1.6781,1.6782,1.6777,1.6778,1.6772,1.6772,1.6769,1.677,1.677,1.6768,1.6767,1.6768,1.6768,1.6767,1.6766,1.6765,1.6765,1.6765,1.6765,0,1.6795,1.6792,1.6794,1.6791,1.6791,1.6792,1.679,1.6791,1.6788,1.6789,1.6789,1.6785,1.6785,1.6781,1.678,1.6777,1.678,1.6778,1.6781,1.678,1.6783,1.6783,1.6795,1.6796,1.6785,1.6785,1.6785,0,1.68,1.6802,1.6799,1.68,1.6799,1.6799,1.6799,1.6795,1.6795,1.6793,1.6795,1.6794,1.6794,1.6794,1.679,1.6789,1.6787,1.6792,1.6787,1.6788,1.6787,1.6786,1.6786,1.6792,1.6793,1.6793,1.6793,0,1.6809,1.6808,1.6808,1.6808,1.6808,1.6807,1.6807,1.6807,1.6803,1.6803,1.6803,1.6803,1.6802,1.6802,1.6801,1.6799,1.6795,1.6795,1.6795,1.6796,1.6797,1.6796,1.6783,1.6794,1.6794,1.6794,1.6794,1.6794,1.6816,1.6817,1.6816,1.6816,1.6815,1.6815,1.6816,1.6814,1.6814,1.6813,1.6811,1.6812,1.681,1.6808,1.6807,1.6807,1.6805,1.6806,1.6806,1.6806,1.6807,1.6798,1.6807,1.6807,1.6807,1.6807,1.6807,0,1.6824,1.6823,1.6823,1.6823,1.6823,1.6821,1.682,1.682,1.6821,1.682,1.682,1.682,1.682,1.6818,1.6817,1.6818,1.6816,1.6818,1.6817,1.6817,1.6809,1.6808,1.6819,1.6819,1.6819,1.6819,1.6819,1.6819,1.6828,1.683,1.6829,1.683,1.683,1.683,1.683,1.683,1.6829,1.683,1.683,1.6829,1.6827,1.6827,1.6826,1.6826,1.6825,1.6827,1.6826,1.6819,1.6817,1.6816,1.6815,1.6828,1.6828,1.6834,1.6834,1.6834]},{"header":{"parameterUnit":"m.s-1","parameterCategory":1,"la1":30.2991,"la2":30.254,"lo1":-89.0895,"lo2":-89.0444,"dy":0.0017,"dx":0.0017,"nx":28,"ny":28,"refTime":"2025-12-31T09:00:00:Z","depth":0,"parameterNumber":3,"parameterNumberName":"V-component_of_WINDS"},"data":[0,0,0,0,0,0,0,0,0,0,0,0,0,0,0,0,0,0,0,0,0,0,0,0,0,0,0,0,0,0,0,0,0,0,0,0,0,0,0,0,0,0,0,0,0,0,0,0,0,0,0,0,0,0,0,0,0,0,-4.7292,-4.7294,0,-4.7487,-4.7489,-4.7492,-4.7454,-4.745,-4.7447,-4.7444,-4.7641,-4.765,-4.7658,0,0,0,0,0,0,0,0,0,0,0,0,0,-4.6883,-4.6891,-4.7292,-4.7294,-4.7297,-4.7487,-4.749,-4.7492,-4.7455,-4.745,-4.7446,-4.7442,-4.7638,-4.7649,-4.7659,0,0,0,0,0,0,0,0,0,0,0,0,0,-4.7068,-4.6894,-4.7291,-4.7301,-4.7304,-4.7486,-4.749,-4.7493,-4.7455,-4.745,-4.7445,-4.744,-4.7635,-4.7648,-4.766,-4.7845,0,0,-4.7699,-4.7705,0,0,0,0,0,0,0,0,-4.7058,-4.7083,-4.7297,-4.73,-4.7304,-4.7441,-4.7418,-4.7611,-4.7457,-4.7398,-4.7443,-4.7437,-4.7579,-4.7596,-4.7644,-4.7854,-4.7863,-4.7701,-4.7708,-4.7714,-4.7717,0,0,0,0,0,0,0,-4.7045,-4.7074,-4.7369,-4.73,-4.7304,-4.7294,-4.7315,-4.7454,-4.7515,-4.7402,-4.74,-4.7424,-4.758,-4.7632,-4.7648,-4.7866,-4.77,-4.7712,-4.7719,-4.7724,-4.8237,-4.8243,0,0,0,0,0,0,-4.7029,-4.7064,-4.7363,-4.7375,-4.7165,-4.7306,-4.7329,-4.7402,-4.7514,-4.7526,-4.7428,-4.7421,-4.7612,-4.7633,-4.7655,-4.7879,-4.7714,-4.7726,-4.7733,-4.8231,-4.8238,-4.8245,0,0,0,0,0,0,-4.7021,-4.7056,-4.7355,-4.7219,-4.7256,-4.7319,-4.7401,-4.7409,-4.7461,-4.7533,-4.7544,-4.7471,-4.7609,-4.7637,-4.7798,-4.7885,-4.7731,-4.7743,-4.8224,-4.8233,-4.8242,-4.8328,0,0,0,0,0,0,-4.7009,-4.7053,-4.7125,-4.7221,-4.7264,-4.7496,-4.7407,-4.7416,-4.7483,-4.7476,-4.7576,-4.7587,-4.7607,-4.7779,-4.7811,-4.79,-4.7753,-4.8217,-4.8228,-4.8239,-4.8318,-4.8339,-4.8357,0,0,0,0,0,-4.6995,-4.7141,-4.7129,-4.7165,-4.7354,-4.7501,-4.7525,-4.7546,-4.7491,-4.7563,-4.7609,-4.7584,-4.7871,-4.7796,-4.7831,-4.7926,-4.8211,-4.8225,-4.8238,-4.8309,-4.8335,-4.8356,0,0,0,0,0,0,-4.7053,-4.7154,-4.7141,-4.7323,-4.7404,-4.7494,-4.7586,-4.7573,-4.767,-4.7659,-4.768,-4.7703,-4.7867,-4.7912,-4.7827,-4.811,-4.8033,-4.8054,-4.8075,-4.81,-4.8119,-4.8105,-4.7764,0,0,0,0,0,-4.7087,-4.7198,-4.728,-4.7432,-4.7474,-4.7523,-4.7587,-4.7596,-4.768,-4.7714,-4.7772,-4.7854,-4.7963,-4.8034,-4.8137,-4.8324,-4.8345,-4.8406,-4.8426,-4.8441,-4.8459,-4.8561,-4.859,-4.8289,-4.8288,-4.8288,0,0,-4.7158,-4.7227,-4.7296,-4.7446,-4.7509,-4.7624,-4.7552,-4.7675,-4.776,-4.7733,-4.7889,-4.7934,-4.8027,-4.8202,-4.8281,-4.8245,-4.8547,-4.8458,-4.847,-4.848,-4.8578,-4.8606,-4.8632,-4.8298,-4.8296,-4.8295,0,0,-4.7347,-4.741,-4.7544,-4.761,-4.7707,-4.7739,-4.7771,-4.7864,-4.7893,-4.8051,-4.8032,-4.8133,-4.8319,-4.8386,-4.8444,-4.8658,-4.8639,-4.8691,-4.8794,-4.8893,-4.8917,-4.8938,-4.9014,-4.9041,-4.8709,-4.8709,-4.8709,0,-4.7423,-4.7595,-4.7615,-4.7741,-4.7807,-4.7788,-4.7924,-4.7986,-4.8112,-4.8158,-4.8115,-4.8349,-4.841,-4.86,-4.8652,-4.87,-4.8737,-4.868,-4.8912,-4.8933,-4.8953,-4.9026,-4.9055,-4.8715,-4.8714,-4.8714,-4.8713,0,-4.7684,-4.7804,-4.79,-4.8023,-4.81,-4.8231,-4.8269,-4.8345,-4.8347,-4.8383,-4.8543,-4.8616,-4.8734,-4.8779,-4.8782,-4.897,-4.8944,-4.8907,-4.8829,-4.8987,-4.9056,-4.9085,-4.8723,-4.8721,-4.8719,-4.8718,0,0,-4.7915,-4.8048,-4.8083,-4.8139,-4.8245,-4.8337,-4.8466,-4.8582,-4.8647,-4.8734,-4.8843,-4.9001,-4.8967,-4.9033,-4.9043,-4.913,-4.9295,-4.9082,-4.9084,-4.9119,-4.9507,-4.9535,-4.9567,-4.9283,-4.9288,-4.9292,-4.9499,0,-4.8114,-4.8343,-4.8364,-4.8569,-4.8679,-4.8663,-4.8775,-4.8852,-4.8889,-4.8987,-4.9027,-4.914,-4.9086,-4.9126,-4.9211,-4.9257,-4.9373,-4.9242,-4.9383,-4.9388,-4.9361,-4.9603,-4.9634,-4.9825,-4.9526,-4.9531,-4.9534,0,-4.8377,-4.8473,-4.8689,-4.8779,-4.8827,-4.8927,-4.9036,-4.913,-4.9217,-4.9237,-4.9312,-4.931,-4.9442,-4.936,-4.9542,-4.9452,-4.9511,-4.9542,-4.955,-4.9564,-4.9471,-4.9624,-4.9887,-4.9916,-4.9577,-4.9573,-4.957,0,-4.8524,-4.8707,-4.886,-4.8908,-4.9018,-4.9089,-4.9138,-4.9219,-4.9288,-4.9382,-4.9427,-4.9535,-4.9594,-4.9677,-4.9705,-4.9642,-4.9886,-4.9806,-4.9907,-4.9906,-4.9959,-4.9956,-5.0235,-4.9997,-4.9996,-4.9995,-4.9995,0,-4.8744,-4.8877,-4.8928,-4.9022,-4.9171,-4.9193,-4.9339,-4.9384,-4.9456,-4.9558,-4.955,-4.9646,-4.9676,-4.9777,-4.9799,-4.9947,-4.9973,-4.9993,-4.9998,-4.9995,-4.9992,-5.0034,-5.0021,-5.0003,-5.0001,-5.0,-4.9999,0,-4.8934,-4.8974,-4.914,-4.923,-4.9255,-4.9361,-4.9437,-4.9528,-4.9563,-4.9692,-4.9724,-4.9779,-4.9898,-4.9933,-5.0075,-5.009,-5.0263,-5.0255,-5.0234,-5.0235,-5.0334,-5.0325,-5.0651,-5.0695,-5.0426,-5.0429,-5.0431,0,-4.9072,-4.9174,-4.9276,-4.9344,-4.9396,-4.9506,-4.9576,-4.9602,-4.9675,-4.9781,-4.9859,-4.9976,-5.0071,-5.0261,-5.0313,-5.0421,-5.0416,-5.0523,-5.0433,-5.0426,-5.0419,-5.0413,-5.0423,-5.054,-5.0543,-5.0545,-5.0547,0,-4.9313,-4.9328,-4.943,-4.9539,-4.9623,-4.971,-4.9794,-4.985,-4.9888,-4.997,-5.0092,-5.0166,-5.0311,-5.0428,-5.0538,-5.0587,-5.0574,-5.0575,-5.0605,-5.0603,-5.0587,-5.0597,-5.0281,-5.0568,-5.0566,-5.0564,-5.0563,-5.0562,-4.9482,-4.9572,-4.9658,-4.9772,-4.9837,-4.9916,-5.0005,-5.0052,-5.0154,-5.0275,-5.0283,-5.0415,-5.0498,-5.0645,-5.07,-5.0803,-5.0771,-5.0814,-5.0825,-5.0835,-5.0843,-5.057,-5.0823,-5.0822,-5.0822,-5.0821,-5.0821,0,-4.9723,-4.9778,-4.9882,-5.0,-5.0089,-5.0069,-5.0161,-5.0237,-5.0353,-5.0432,-5.0526,-5.0665,-5.0778,-5.0839,-5.0952,-5.1022,-5.1019,-5.1051,-5.1046,-5.1058,-5.0864,-5.0828,-5.1051,-5.1051,-5.1051,-5.1051,-5.1051,-5.1051,-4.9859,-5.0011,-5.0035,-5.0219,-5.0272,-5.0401,-5.0455,-5.0527,-5.0591,-5.0747,-5.0841,-5.088,-5.0952,-5.107,-5.1172,-5.1187,-5.1229,-5.1265,-5.1276,-5.1095,-5.1071,-5.1049,-5.1015,-5.1273,-5.1274,-5.1461,-5.1462,-5.1464]}]]